Weather in Savonlinna

Finland     61°52′11″N   28°52′48″E
temp.,
°C
wind,
m/s
gust,
m/s
humid.,
%
clouds,
%
prec.,
mm/h
press.,
hPa
HPBL,
m
11 april, sun
sun1100:000sw613845 0.1 1011388
03:00−1sw613845 0.1 1013338
06:000sw714835 0.0 1015402
09:00+1wsw611815 0.0 1018545
12:00+3wsw59630 0.0 1022497
15:00+4wsw58570 0.0 1024535
18:00+4sw3666100 0.0 1025293
21:00+2s3479100 0.0 102752
12 april, mon
mon1200:00+2s2381100 0.0 102842
03:00+1se3881100 0.0 1027134
06:00+2ese61384100 0.6 1024393
09:00+3se41094100 1.1 1022258
12:00+8s5107889 0.0 1021391
15:00+9ssw61268100 0.0 1020431
18:00+9ssw61366100 0.0 1019473
21:00+7s51370100 0.0 1019321
13 april, tue
tue1300:00+6s41183100 0.0 1018224
03:00+5s498798 0.0 1016181
06:00+4s3791100 0.0 1016112
09:00+4s3988100 0.1 1015234
12:00+4ssw4893100 0.1 1016259
15:00+5ssw4787100 0.1 1017280
18:00+4ssw477799 0.0 1017306
21:00+3ssw51083100 0.0 1017254
14 april, wed
wed1400:00+2wsw5107891 0.0 1018286
03:000wsw5108687 0.0 1019406
06:00−1w5108731 0.0 1021448
09:00+1wnw58685 0.0 1022696
12:00+2wnw466315 0.0 1024616
15:00+3nw355915 0.0 1025721
18:00+3nnw35577 0.0 1026617
21:00+1nw23664 0.0 102734
15 april, thu
thu1500:000wnw22690 0.0 102812
03:00−1w24773 0.0 102755
06:00−1wsw36815 0.0 102792
09:00+2wnw35805 0.0 1027237
12:00+4wnw35695 0.0 1028469
15:00+5nnw69649 0.0 1029698
18:00+4nne596615 0.0 1031605
21:00+1n37760 0.0 1033209